Back to Top

Language: 

My Weather Underground Personal Weather Station Historical Data with Graphs...

Delerius Weather Station Historical Data
Daily Summary for June 7, 2017 Units:  Metric    English   Both
« Previous Day
Next Day »
Daily Weekly Monthly Yearly Custom
  High: Low: Average:
Temperature: 17.7 °C 10.9 °C 13.8 °C
Dew Point: 10.4 °C 6.6 °C 8 °C
Humidity: 89 % 50 % 69 %
Wind Speed: 40.2 km/h 3.2 km/h 24.5 km/h
Wind Gust: 69.2 km/h - -
Wind:- - West
Pressure: 1009.4 hPa 996.2 hPa -
Precipitation: 0 mm    
Historical Graphs
 
 
Tabular Data for June 7, 2017
Time Temperature Dew Point Pressure Wind Wind Speed Wind Gust Humidity Rainfall Rate (Hourly) solar Conditions
00:00 11.1 °C 8.7 °C 996.2 hPa West 27.4 km/h 49.9 km/h 85 % 0 mm 0 W/m2
00:05 11.1 °C 8.7 °C 996.2 hPa WNW 27.4 km/h 49.9 km/h 85 % 0 mm 0 W/m2
00:10 11.1 °C 8.7 °C 996.5 hPa West 25.7 km/h 43.5 km/h 85 % 0 mm 0 W/m2
00:15 11.1 °C 8.7 °C 996.2 hPa WNW 24.1 km/h 45.1 km/h 85 % 0 mm 0 W/m2
00:20 11.1 °C 8.7 °C 996.5 hPa West 24.1 km/h 46.7 km/h 85 % 0 mm 0 W/m2
00:25 11.1 °C 8.7 °C 996.5 hPa West 24.1 km/h 46.7 km/h 85 % 0 mm 0 W/m2
00:30 11.1 °C 8.7 °C 996.5 hPa West 24.1 km/h 46.7 km/h 85 % 0 mm 0 W/m2
00:35 11.1 °C 8.7 °C 996.5 hPa West 27.4 km/h 46.7 km/h 85 % 0 mm 0 W/m2
00:40 11.1 °C 8.7 °C 996.5 hPa West 27.4 km/h 41.8 km/h 85 % 0 mm 0 W/m2
00:45 11.1 °C 8.7 °C 996.5 hPa West 27.4 km/h 48.3 km/h 85 % 0 mm 0 W/m2
00:50 11.1 °C 8.7 °C 996.5 hPa West 24.1 km/h 48.3 km/h 85 % 0 mm 0 W/m2
00:55 11.1 °C 8.8 °C 996.5 hPa West 24.1 km/h 46.7 km/h 86 % 0 mm 0 W/m2
01:00 11.1 °C 8.7 °C 996.8 hPa West 27.4 km/h 46.7 km/h 85 % 0 mm 0 W/m2
01:05 11.1 °C 8.8 °C 996.8 hPa West 25.7 km/h 46.7 km/h 86 % 0 mm 0 W/m2
01:10 11.1 °C 8.7 °C 996.8 hPa West 27.4 km/h 46.7 km/h 85 % 0 mm 0 W/m2
01:15 11.1 °C 8.8 °C 996.8 hPa West 29 km/h 49.9 km/h 86 % 0 mm 0 W/m2
01:20 11 °C 8.7 °C 996.8 hPa West 29 km/h 49.9 km/h 86 % 0 mm 0 W/m2
01:25 11 °C 8.7 °C 996.8 hPa West 30.6 km/h 49.9 km/h 86 % 0 mm 0 W/m2
01:30 11.1 °C 8.8 °C 996.8 hPa West 30.6 km/h 49.9 km/h 86 % 0 mm 0 W/m2
01:35 11.1 °C 8.7 °C 996.8 hPa West 32.2 km/h 54.7 km/h 85 % 0 mm 0 W/m2
01:40 11.1 °C 8.7 °C 996.8 hPa West 30.6 km/h 54.7 km/h 85 % 0 mm 0 W/m2
01:45 11.1 °C 8.7 °C 997.2 hPa West 27.4 km/h 48.3 km/h 85 % 0 mm 0 W/m2
01:50 11.1 °C 8.7 °C 997.2 hPa West 27.4 km/h 48.3 km/h 85 % 0 mm 0 W/m2
01:55 11.2 °C 8.8 °C 997.2 hPa West 27.4 km/h 48.3 km/h 85 % 0 mm 0 W/m2
02:00 11.2 °C 8.8 °C 997.2 hPa West 29 km/h 48.3 km/h 85 % 0 mm 0 W/m2
02:05 11.2 °C 8.8 °C 997.2 hPa West 27.4 km/h 48.3 km/h 85 % 0 mm 0 W/m2
02:10 11.2 °C 8.8 °C 997.5 hPa West 27.4 km/h 46.7 km/h 85 % 0 mm 0 W/m2
02:15 11.1 °C 8.8 °C 997.5 hPa West 29 km/h 46.7 km/h 86 % 0 mm 0 W/m2
02:20 11 °C 8.7 °C 997.5 hPa West 29 km/h 51.5 km/h 86 % 0 mm 0 W/m2
02:25 11 °C 8.7 °C 997.5 hPa West 29 km/h 54.7 km/h 86 % 0 mm 0 W/m2
02:31 11 °C 8.7 °C 997.5 hPa West 27.4 km/h 54.7 km/h 86 % 0 mm 0 W/m2
02:36 11.1 °C 8.7 °C 997.5 hPa West 27.4 km/h 48.3 km/h 85 % 0 mm 0 W/m2
02:41 11.1 °C 8.8 °C 997.9 hPa West 29 km/h 48.3 km/h 86 % 0 mm 0 W/m2
02:46 11 °C 8.7 °C 997.9 hPa WNW 29 km/h 46.7 km/h 86 % 0 mm 0 W/m2
02:51 11.1 °C 8.8 °C 997.9 hPa WNW 27.4 km/h 45.1 km/h 86 % 0 mm 0 W/m2
02:56 11.1 °C 9 °C 997.9 hPa West 29 km/h 54.7 km/h 87 % 0 mm 0 W/m2
03:01 11 °C 8.9 °C 998.2 hPa West 30.6 km/h 54.7 km/h 87 % 0 mm 0 W/m2
03:06 11 °C 8.7 °C 998.2 hPa West 29 km/h 48.3 km/h 86 % 0 mm 0 W/m2
03:11 10.9 °C 8.8 °C 998.2 hPa West 27.4 km/h 43.5 km/h 87 % 0 mm 0 W/m2
03:16 10.9 °C 8.8 °C 998.2 hPa West 24.1 km/h 45.1 km/h 87 % 0 mm 0 W/m2
03:21 11 °C 8.9 °C 998.2 hPa West 25.7 km/h 45.1 km/h 87 % 0 mm 0 W/m2
03:26 10.9 °C 8.8 °C 998.5 hPa West 27.4 km/h 46.7 km/h 87 % 0 mm 0 W/m2
03:31 10.9 °C 8.8 °C 998.5 hPa West 24.1 km/h 46.7 km/h 87 % 0 mm 0 W/m2
03:36 10.9 °C 8.7 °C 998.5 hPa WNW 25.7 km/h 43.5 km/h 86 % 0 mm 0 W/m2
03:41 11 °C 8.6 °C 998.5 hPa WNW 29 km/h 48.3 km/h 85 % 0 mm 0 W/m2
03:46 11.1 °C 8.5 °C 998.5 hPa WNW 30.6 km/h 53.1 km/h 84 % 0 mm 0 W/m2
03:51 11.1 °C 8.5 °C 998.5 hPa West 29 km/h 57.9 km/h 84 % 0 mm 0 W/m2
03:56 11.2 °C 8.4 °C 998.5 hPa West 30.6 km/h 57.9 km/h 83 % 0 mm 0 W/m2
04:01 11.1 °C 8.3 °C 998.9 hPa West 35.4 km/h 57.9 km/h 83 % 0 mm 0 W/m2
04:06 11.1 °C 8.3 °C 998.9 hPa West 33.8 km/h 54.7 km/h 83 % 0 mm 0 W/m2
04:11 11.1 °C 8.3 °C 998.9 hPa West 29 km/h 54.7 km/h 83 % 0 mm 0 W/m2
04:16 11.1 °C 8.3 °C 998.9 hPa West 30.6 km/h 54.7 km/h 83 % 0 mm 0 W/m2
04:21 11.1 °C 8.3 °C 999.2 hPa WNW 33.8 km/h 57.9 km/h 83 % 0 mm 0 W/m2
04:26 11.1 °C 8.3 °C 999.2 hPa WNW 33.8 km/h 57.9 km/h 83 % 0 mm 0 W/m2
04:31 11.1 °C 8.3 °C 999.2 hPa WNW 29 km/h 49.9 km/h 83 % 0 mm 0 W/m2
04:36 11.1 °C 8.2 °C 999.2 hPa WNW 29 km/h 53.1 km/h 82 % 0 mm 0 W/m2
04:41 11.1 °C 8.2 °C 999.5 hPa WNW 30.6 km/h 54.7 km/h 82 % 0 mm 0 W/m2
04:46 11.1 °C 8.2 °C 999.5 hPa WNW 29 km/h 54.7 km/h 82 % 0 mm 0 W/m2
04:51 11.1 °C 8.2 °C 999.5 hPa WNW 25.7 km/h 41.8 km/h 82 % 0 mm 0 W/m2
04:56 11.1 °C 7.9 °C 999.9 hPa WNW 27.4 km/h 49.9 km/h 81 % 0 mm 0 W/m2
05:01 11.1 °C 7.9 °C 999.9 hPa WNW 29 km/h 49.9 km/h 81 % 0 mm 0 W/m2
05:06 11.1 °C 7.9 °C 1000.2 hPa WNW 29 km/h 48.3 km/h 81 % 0 mm 5 W/m2
05:11 11.1 °C 7.9 °C 1000.2 hPa WNW 27.4 km/h 48.3 km/h 81 % 0 mm 5 W/m2
05:16 11.1 °C 7.8 °C 999.9 hPa WNW 27.4 km/h 48.3 km/h 80 % 0 mm 7 W/m2
05:22 11 °C 7.7 °C 1000.2 hPa WNW 25.7 km/h 43.5 km/h 80 % 0 mm 7 W/m2
05:27 11 °C 7.7 °C 1000.2 hPa WNW 25.7 km/h 46.7 km/h 80 % 0 mm 7 W/m2
05:32 11.1 °C 7.8 °C 1000.6 hPa WNW 27.4 km/h 46.7 km/h 80 % 0 mm 7 W/m2
05:33 11.1 °C 7.8 °C 1000.6 hPa WNW 29 km/h 49.9 km/h 80 % 0 mm 7 W/m2
05:37 11.1 °C 7.8 °C 1000.9 hPa WNW 29 km/h 51.5 km/h 80 % 0 mm 7 W/m2
05:42 11.1 °C 7.8 °C 1000.6 hPa WNW 29 km/h 51.5 km/h 80 % 0 mm 9 W/m2
05:47 11.1 °C 7.8 °C 1000.9 hPa WNW 29 km/h 51.5 km/h 80 % 0 mm 14 W/m2
05:52 11.2 °C 7.7 °C 1000.9 hPa WNW 30.6 km/h 49.9 km/h 79 % 0 mm 18 W/m2
05:57 11.1 °C 7.8 °C 1001.2 hPa WNW 27.4 km/h 49.9 km/h 80 % 0 mm 12 W/m2
06:02 11.1 °C 7.8 °C 1001.2 hPa WNW 22.5 km/h 40.2 km/h 80 % 0 mm 19 W/m2
06:07 11.1 °C 7.8 °C 1001.2 hPa WNW 22.5 km/h 45.1 km/h 80 % 0 mm 18 W/m2
06:12 11 °C 7.9 °C 1001.6 hPa WNW 22.5 km/h 45.1 km/h 81 % 0 mm 23 W/m2
06:17 11 °C 7.7 °C 1001.6 hPa WNW 20.9 km/h 37 km/h 80 % 0 mm 32 W/m2
06:22 11 °C 7.7 °C 1001.6 hPa WNW 22.5 km/h 45.1 km/h 80 % 0 mm 44 W/m2
06:27 11 °C 7.7 °C 1001.6 hPa WNW 25.7 km/h 45.1 km/h 80 % 0 mm 46 W/m2
06:32 11 °C 7.5 °C 1001.6 hPa WNW 27.4 km/h 49.9 km/h 79 % 0 mm 35 W/m2
06:37 10.9 °C 7.4 °C 1001.9 hPa WNW 27.4 km/h 49.9 km/h 79 % 0 mm 47 W/m2
06:43 10.9 °C 7.4 °C 1001.9 hPa WNW 29 km/h 57.9 km/h 79 % 0 mm 39 W/m2
06:48 10.9 °C 7.2 °C 1002.3 hPa WNW 30.6 km/h 57.9 km/h 78 % 0 mm 58 W/m2
06:53 10.9 °C 7.2 °C 1002.3 hPa WNW 29 km/h 49.9 km/h 78 % 0 mm 62 W/m2
06:58 11.1 °C 7.4 °C 1002.3 hPa WNW 27.4 km/h 51.5 km/h 78 % 0 mm 67 W/m2
07:03 11.2 °C 7.5 °C 1002.3 hPa WNW 29 km/h 51.5 km/h 78 % 0 mm 107 W/m2
07:08 11.4 °C 7.5 °C 1002.6 hPa WNW 30.6 km/h 49.9 km/h 77 % 0 mm 84 W/m2
07:13 11.5 °C 7.4 °C 1002.6 hPa WNW 29 km/h 54.7 km/h 76 % 0 mm 90 W/m2
07:18 11.6 °C 7.5 °C 1002.9 hPa WNW 30.6 km/h 54.7 km/h 76 % 0 mm 371 W/m2
07:23 11.9 °C 7.6 °C 1002.9 hPa WNW 30.6 km/h 53.1 km/h 75 % 0 mm 199 W/m2
07:28 11.9 °C 7.4 °C 1003.3 hPa WNW 27.4 km/h 53.1 km/h 74 % 0 mm 171 W/m2
07:33 11.9 °C 7.4 °C 1003.3 hPa WNW 27.4 km/h 51.5 km/h 74 % 0 mm 118 W/m2
07:38 11.8 °C 7.3 °C 1003.3 hPa WNW 29 km/h 57.9 km/h 74 % 0 mm 79 W/m2
07:43 11.7 °C 7.2 °C 1003.3 hPa WNW 29 km/h 57.9 km/h 74 % 0 mm 111 W/m2
07:48 11.9 °C 7.4 °C 1003.6 hPa WNW 30.6 km/h 49.9 km/h 74 % 0 mm 404 W/m2
07:53 12.2 °C 7.5 °C 1003.6 hPa WNW 29 km/h 49.9 km/h 73 % 0 mm 452 W/m2
07:58 12.3 °C 7.4 °C 1003.6 hPa WNW 32.2 km/h 56.3 km/h 72 % 0 mm 330 W/m2
08:03 12.5 °C 7.8 °C 1003.6 hPa WNW 33.8 km/h 57.9 km/h 73 % 0 mm 345 W/m2
08:08 12.7 °C 7.6 °C 1003.9 hPa WNW 32.2 km/h 57.9 km/h 71 % 0 mm 462 W/m2
08:13 12.9 °C 7.8 °C 1003.9 hPa WNW 32.2 km/h 54.7 km/h 71 % 0 mm 471 W/m2
08:18 13.1 °C 7.6 °C 1004.3 hPa WNW 32.2 km/h 66 km/h 69 % 0 mm 499 W/m2
08:23 13.3 °C 7.7 °C 1004.3 hPa WNW 33.8 km/h 66 km/h 69 % 0 mm 461 W/m2
08:28 13.4 °C 7.8 °C 1004.3 hPa WNW 32.2 km/h 53.1 km/h 69 % 0 mm 570 W/m2
08:33 13.3 °C 7.7 °C 1004.3 hPa WNW 30.6 km/h 51.5 km/h 69 % 0 mm 550 W/m2
08:38 13.5 °C 7.5 °C 1004.6 hPa WNW 30.6 km/h 56.3 km/h 67 % 0 mm 541 W/m2
08:43 13.6 °C 7.6 °C 1004.6 hPa WNW 29 km/h 56.3 km/h 67 % 0 mm 564 W/m2
08:48 13.6 °C 7.2 °C 1004.6 hPa WNW 29 km/h 64.4 km/h 65 % 0 mm 635 W/m2
08:53 13.7 °C 7.7 °C 1004.6 hPa WNW 30.6 km/h 64.4 km/h 67 % 0 mm 183 W/m2
08:54 13.7 °C 7.4 °C 1004.6 hPa WNW 32.2 km/h 64.4 km/h 66 % 0 mm 163 W/m2
08:59 13.4 °C 7.6 °C 1004.6 hPa WNW 29 km/h 59.5 km/h 68 % 0 mm 114 W/m2
09:04 13.4 °C 7.6 °C 1004.6 hPa WNW 32.2 km/h 56.3 km/h 68 % 0 mm 624 W/m2
09:09 13.6 °C 7.8 °C 1004.6 hPa WNW 33.8 km/h 56.3 km/h 68 % 0 mm 622 W/m2
09:14 13.8 °C 7.8 °C 1005 hPa WNW 33.8 km/h 56.3 km/h 67 % 0 mm 123 W/m2
09:19 13.8 °C 7.6 °C 1005 hPa WNW 35.4 km/h 69.2 km/h 66 % 0 mm 628 W/m2
09:24 13.9 °C 7.4 °C 1005 hPa WNW 37 km/h 69.2 km/h 65 % 0 mm 638 W/m2
09:25 13.9 °C 7.4 °C 1005 hPa WNW 37 km/h 69.2 km/h 65 % 0 mm 642 W/m2
09:30 14.1 °C 7.6 °C 1005 hPa WNW 37 km/h 57.9 km/h 65 % 0 mm 656 W/m2
09:35 14.3 °C 7.8 °C 1005.3 hPa WNW 35.4 km/h 57.9 km/h 65 % 0 mm 680 W/m2
09:40 14.2 °C 7.7 °C 1005.3 hPa WNW 37 km/h 62.8 km/h 65 % 0 mm 679 W/m2
09:45 14.2 °C 7.7 °C 1005.6 hPa WNW 38.6 km/h 62.8 km/h 65 % 0 mm 694 W/m2
09:50 14.3 °C 7.6 °C 1005.6 hPa WNW 35.4 km/h 54.7 km/h 64 % 0 mm 705 W/m2
09:55 14.6 °C 7.4 °C 1006 hPa WNW 32.2 km/h 54.7 km/h 62 % 0 mm 888 W/m2
10:00 14.6 °C 7.2 °C 1006 hPa WNW 32.2 km/h 54.7 km/h 61 % 0 mm 575 W/m2
10:05 14.6 °C 7.4 °C 1005.6 hPa WNW 30.6 km/h 57.9 km/h 62 % 0 mm 786 W/m2
10:10 14.7 °C 7.7 °C 1005.6 hPa WNW 29 km/h 57.9 km/h 63 % 0 mm 807 W/m2
10:15 14.7 °C 7.7 °C 1005.6 hPa WNW 35.4 km/h 69.2 km/h 63 % 0 mm 775 W/m2
10:20 14.5 °C 8 °C 1006 hPa West 40.2 km/h 69.2 km/h 65 % 0 mm 893 W/m2
10:26 14.5 °C 8.2 °C 1006.3 hPa WNW 37 km/h 61.2 km/h 66 % 0 mm 480 W/m2
10:31 14.3 °C 8.3 °C 1006.3 hPa West 33.8 km/h 61.2 km/h 67 % 0 mm 338 W/m2
10:36 14.5 °C 8.2 °C 1006.7 hPa West 32.2 km/h 49.9 km/h 66 % 0 mm 874 W/m2
10:41 14.8 °C 8.1 °C 1006.7 hPa West 30.6 km/h 49.9 km/h 64 % 0 mm 288 W/m2
10:46 14.8 °C 8.1 °C 1006.7 hPa West 29 km/h 49.9 km/h 64 % 0 mm 276 W/m2
10:51 15 °C 8.2 °C 1006.7 hPa West 27.4 km/h 46.7 km/h 64 % 0 mm 1044 W/m2
10:56 15.1 °C 8.1 °C 1006.7 hPa WNW 29 km/h 46.7 km/h 63 % 0 mm 1092 W/m2
11:01 15 °C 7.1 °C 1007 hPa WNW 33.8 km/h 57.9 km/h 59 % 0 mm 353 W/m2
11:06 14.8 °C 7.6 °C 1007 hPa WNW 32.2 km/h 57.9 km/h 62 % 0 mm 450 W/m2
11:11 14.8 °C 8.1 °C 1007 hPa WNW 27.4 km/h 49.9 km/h 64 % 0 mm 292 W/m2
11:16 14.6 °C 8.3 °C 1007.3 hPa WNW 25.7 km/h 51.5 km/h 66 % 0 mm 204 W/m2
11:21 14.6 °C 8.1 °C 1007.3 hPa WNW 27.4 km/h 51.5 km/h 65 % 0 mm 1062 W/m2
11:26 14.9 °C 7.9 °C 1007.3 hPa WNW 29 km/h 53.1 km/h 63 % 0 mm 1062 W/m2
11:31 15.2 °C 7.9 °C 1007.3 hPa WNW 29 km/h 53.1 km/h 62 % 0 mm 1141 W/m2
11:36 15.4 °C 7.9 °C 1007.3 hPa WNW 25.7 km/h 46.7 km/h 61 % 0 mm 229 W/m2
11:41 15.1 °C 8.1 °C 1007.3 hPa WNW 29 km/h 53.1 km/h 63 % 0 mm 914 W/m2
11:51 15.7 °C 8.4 °C 1007.7 hPa WNW 27.4 km/h 45.1 km/h 62 % 0 mm 942 W/m2
11:56 15.9 °C 7.9 °C 1007.3 hPa WNW 27.4 km/h 57.9 km/h 59 % 0 mm 942 W/m2
12:01 15.6 °C 7.3 °C 1007.7 hPa WNW 32.2 km/h 57.9 km/h 58 % 0 mm 1090 W/m2
12:06 15.6 °C 7.6 °C 1007.7 hPa WNW 33.8 km/h 51.5 km/h 59 % 0 mm 1111 W/m2
12:11 15.8 °C 8.1 °C 1007.7 hPa WNW 30.6 km/h 49.9 km/h 60 % 0 mm 977 W/m2
12:16 16.1 °C 7.8 °C 1007.7 hPa WNW 30.6 km/h 53.1 km/h 58 % 0 mm 329 W/m2
12:21 16.2 °C 7.9 °C 1007.7 hPa West 30.6 km/h 53.1 km/h 58 % 0 mm 1034 W/m2
12:22 16.2 °C 7.9 °C 1007.7 hPa West 30.6 km/h 53.1 km/h 58 % 0 mm 1125 W/m2
12:27 16 °C 7.7 °C 1007.7 hPa WNW 30.6 km/h 45.1 km/h 58 % 0 mm 316 W/m2
12:32 15.8 °C 7.8 °C 1007.7 hPa WNW 30.6 km/h 51.5 km/h 59 % 0 mm 1097 W/m2
12:37 15.7 °C 7.4 °C 1007.7 hPa WNW 32.2 km/h 51.5 km/h 58 % 0 mm 1097 W/m2
12:42 15.6 °C 7.8 °C 1007.7 hPa West 32.2 km/h 57.9 km/h 60 % 0 mm 1132 W/m2
12:47 15.6 °C 7.6 °C 1007.7 hPa WNW 30.6 km/h 57.9 km/h 59 % 0 mm 1005 W/m2
12:52 15.9 °C 7.9 °C 1007.7 hPa WNW 30.6 km/h 51.5 km/h 59 % 0 mm 962 W/m2
12:57 16.2 °C 7.9 °C 1007.7 hPa WNW 29 km/h 49.9 km/h 58 % 0 mm 935 W/m2
13:02 16.6 °C 8.3 °C 1008 hPa WNW 27.4 km/h 46.7 km/h 58 % 0 mm 1081 W/m2
13:07 16.7 °C 7.9 °C 1008 hPa WNW 29 km/h 49.9 km/h 56 % 0 mm 947 W/m2
13:12 16.7 °C 7.3 °C 1007.7 hPa WNW 30.6 km/h 49.9 km/h 54 % 0 mm 963 W/m2
13:17 16.8 °C 7.2 °C 1008 hPa West 30.6 km/h 51.5 km/h 53 % 0 mm 946 W/m2
13:22 16.6 °C 7 °C 1008 hPa West 33.8 km/h 56.3 km/h 53 % 0 mm 933 W/m2
13:27 16.7 °C 7.1 °C 1008 hPa West 33.8 km/h 56.3 km/h 53 % 0 mm 962 W/m2
13:32 16.7 °C 7.1 °C 1008 hPa West 32.2 km/h 51.5 km/h 53 % 0 mm 988 W/m2
13:37 16.6 °C 7.2 °C 1008 hPa West 32.2 km/h 51.5 km/h 54 % 0 mm 944 W/m2
13:42 16.5 °C 7.2 °C 1008 hPa West 32.2 km/h 51.5 km/h 54 % 0 mm 944 W/m2
13:47 16.5 °C 7.2 °C 1008 hPa West 33.8 km/h 53.1 km/h 54 % 0 mm 1136 W/m2
13:52 16.6 °C 7.5 °C 1008.4 hPa West 32.2 km/h 53.1 km/h 55 % 0 mm 1004 W/m2
13:57 16.9 °C 7.5 °C 1008.4 hPa West 29 km/h 53.1 km/h 54 % 0 mm 946 W/m2
14:02 16.9 °C 8.1 °C 1008.4 hPa West 29 km/h 53.1 km/h 56 % 0 mm 1000 W/m2
14:07 16.8 °C 7.2 °C 1008.4 hPa West 32.2 km/h 53.1 km/h 53 % 0 mm 1053 W/m2
14:12 16.5 °C 7.2 °C 1008.7 hPa West 33.8 km/h 54.7 km/h 54 % 0 mm 1067 W/m2
14:17 16.4 °C 7.6 °C 1008.7 hPa West 33.8 km/h 54.7 km/h 56 % 0 mm 250 W/m2
14:22 16.6 °C 7.8 °C 1008.7 hPa WNW 30.6 km/h 48.3 km/h 56 % 0 mm 1141 W/m2
14:27 16.7 °C 7.6 °C 1008.7 hPa WNW 30.6 km/h 46.7 km/h 55 % 0 mm 949 W/m2
14:32 16.9 °C 7.5 °C 1008.7 hPa West 30.6 km/h 48.3 km/h 54 % 0 mm 1011 W/m2
14:37 16.6 °C 7.2 °C 1008.7 hPa West 30.6 km/h 48.3 km/h 54 % 0 mm 204 W/m2
14:42 16.4 °C 7.6 °C 1008.7 hPa West 29 km/h 49.9 km/h 56 % 0 mm 902 W/m2
14:47 16.9 °C 7.8 °C 1008.7 hPa West 25.7 km/h 49.9 km/h 55 % 0 mm 956 W/m2
14:52 17.3 °C 7.6 °C 1008.7 hPa West 25.7 km/h 43.5 km/h 53 % 0 mm 881 W/m2
14:58 17.1 °C 7.2 °C 1008.7 hPa West 30.6 km/h 48.3 km/h 52 % 0 mm 851 W/m2
15:03 17 °C 7.1 °C 1008.7 hPa West 30.6 km/h 49.9 km/h 52 % 0 mm 858 W/m2
15:08 17.1 °C 7.4 °C 1008.7 hPa West 30.6 km/h 48.3 km/h 53 % 0 mm 780 W/m2
15:13 17.1 °C 6.6 °C 1008.7 hPa West 30.6 km/h 48.3 km/h 50 % 0 mm 728 W/m2
15:18 17.1 °C 6.6 °C 1009 hPa West 32.2 km/h 53.1 km/h 50 % 0 mm 879 W/m2
15:23 17.1 °C 6.9 °C 1009 hPa West 32.2 km/h 53.1 km/h 51 % 0 mm 817 W/m2
15:28 17 °C 6.8 °C 1009 hPa West 30.6 km/h 48.3 km/h 51 % 0 mm 735 W/m2
15:33 17.1 °C 6.6 °C 1009 hPa West 29 km/h 46.7 km/h 50 % 0 mm 747 W/m2
15:34 17.2 °C 7.3 °C 1009 hPa West 29 km/h 46.7 km/h 52 % 0 mm 846 W/m2
15:39 17.5 °C 6.9 °C 1009 hPa West 27.4 km/h 43.5 km/h 50 % 0 mm 747 W/m2
15:44 17.6 °C 7.3 °C 1009 hPa West 25.7 km/h 48.3 km/h 51 % 0 mm 768 W/m2
15:49 17.7 °C 7.4 °C 1009.4 hPa West 24.1 km/h 48.3 km/h 51 % 0 mm 775 W/m2
15:54 17.7 °C 7.4 °C 1009 hPa West 20.9 km/h 38.6 km/h 51 % 0 mm 673 W/m2
15:59 17.5 °C 6.9 °C 1009 hPa WNW 24.1 km/h 41.8 km/h 50 % 0 mm 795 W/m2
16:04 17.6 °C 7.1 °C 1009 hPa WNW 27.4 km/h 46.7 km/h 50 % 0 mm 599 W/m2
16:09 17.6 °C 7.3 °C 1009.4 hPa West 24.1 km/h 46.7 km/h 51 % 0 mm 512 W/m2
16:14 17.3 °C 7.1 °C 1009.4 hPa West 22.5 km/h 40.2 km/h 51 % 0 mm 385 W/m2
16:19 17.1 °C 7.2 °C 1009.4 hPa WSW 22.5 km/h 40.2 km/h 52 % 0 mm 360 W/m2
16:24 17.1 °C 7.7 °C 1009.4 hPa West 20.9 km/h 35.4 km/h 54 % 0 mm 388 W/m2
16:29 17 °C 7.3 °C 1009.4 hPa West 20.9 km/h 38.6 km/h 53 % 0 mm 413 W/m2
16:34 17 °C 7.6 °C 1009.4 hPa West 20.9 km/h 38.6 km/h 54 % 0 mm 650 W/m2
16:39 17.1 °C 7.4 °C 1009.4 hPa West 20.9 km/h 40.2 km/h 53 % 0 mm 415 W/m2
16:44 17.1 °C 7.7 °C 1009.4 hPa West 20.9 km/h 40.2 km/h 54 % 0 mm 323 W/m2
16:49 16.9 °C 7.5 °C 1009.4 hPa West 20.9 km/h 41.8 km/h 54 % 0 mm 251 W/m2
16:54 16.7 °C 7.6 °C 1009.4 hPa West 22.5 km/h 41.8 km/h 55 % 0 mm 246 W/m2
16:59 16.5 °C 7.7 °C 1009.4 hPa West 20.9 km/h 37 km/h 56 % 0 mm 241 W/m2
17:04 16.4 °C 8.1 °C 1009.4 hPa West 19.3 km/h 33.8 km/h 58 % 0 mm 216 W/m2
17:09 16.4 °C 8.1 °C 1009.4 hPa West 19.3 km/h 33.8 km/h 58 % 0 mm 225 W/m2
17:14 16.3 °C 8 °C 1009.4 hPa West 20.9 km/h 33.8 km/h 58 % 0 mm 206 W/m2
17:19 16.3 °C 8 °C 1009 hPa West 19.3 km/h 33.8 km/h 58 % 0 mm 211 W/m2
17:24 16.1 °C 8.1 °C 1009 hPa WSW 19.3 km/h 33.8 km/h 59 % 0 mm 299 W/m2
17:29 16.2 °C 8.4 °C 1009.4 hPa West 17.7 km/h 32.2 km/h 60 % 0 mm 272 W/m2
17:34 16.3 °C 8.5 °C 1009.4 hPa West 17.7 km/h 30.6 km/h 60 % 0 mm 221 W/m2
17:39 16.2 °C 8.2 °C 1009.4 hPa West 19.3 km/h 37 km/h 59 % 0 mm 227 W/m2
17:44 16.1 °C 8.1 °C 1009.4 hPa WSW 22.5 km/h 38.6 km/h 59 % 0 mm 346 W/m2
17:50 16.2 °C 8.7 °C 1009 hPa WSW 20.9 km/h 38.6 km/h 61 % 0 mm 279 W/m2
17:55 16.4 °C 8.6 °C 1009 hPa West 16.1 km/h 33.8 km/h 60 % 0 mm 285 W/m2
18:00 16.4 °C 8.6 °C 1009 hPa West 16.1 km/h 32.2 km/h 60 % 0 mm 290 W/m2
18:05 16.4 °C 8.4 °C 1009 hPa West 17.7 km/h 33.8 km/h 59 % 0 mm 271 W/m2
18:10 16.4 °C 8.6 °C 1009 hPa West 19.3 km/h 33.8 km/h 60 % 0 mm 243 W/m2
18:15 16.4 °C 8.6 °C 1009 hPa West 17.7 km/h 30.6 km/h 60 % 0 mm 311 W/m2
18:20 16.4 °C 8.4 °C 1009 hPa WSW 17.7 km/h 35.4 km/h 59 % 0 mm 188 W/m2
18:25 16.2 °C 8.2 °C 1009 hPa West 20.9 km/h 37 km/h 59 % 0 mm 142 W/m2
18:30 16.1 °C 8.3 °C 1009 hPa West 19.3 km/h 37 km/h 60 % 0 mm 95 W/m2
18:35 15.9 °C 8.2 °C 1009 hPa West 17.7 km/h 33.8 km/h 60 % 0 mm 88 W/m2
18:40 15.8 °C 8.3 °C 1009.4 hPa West 17.7 km/h 38.6 km/h 61 % 0 mm 93 W/m2
18:45 15.6 °C 7.8 °C 1009.4 hPa West 17.7 km/h 38.6 km/h 60 % 0 mm 118 W/m2
18:50 15.6 °C 7.6 °C 1009.4 hPa West 20.9 km/h 35.4 km/h 59 % 0 mm 116 W/m2
18:55 15.5 °C 7.3 °C 1009 hPa West 19.3 km/h 35.4 km/h 58 % 0 mm 105 W/m2
19:00 15.5 °C 7 °C 1009.4 hPa West 17.7 km/h 33.8 km/h 57 % 0 mm 118 W/m2
19:05 15.4 °C 7.2 °C 1009.4 hPa West 17.7 km/h 30.6 km/h 58 % 0 mm 141 W/m2
19:10 15.5 °C 7.3 °C 1009.4 hPa West 16.1 km/h 32.2 km/h 58 % 0 mm 116 W/m2
19:15 15.4 °C 7.2 °C 1009.4 hPa WSW 16.1 km/h 32.2 km/h 58 % 0 mm 113 W/m2
19:20 15.4 °C 7.2 °C 1009.4 hPa West 14.5 km/h 30.6 km/h 58 % 0 mm 113 W/m2
19:25 15.4 °C 7.2 °C 1009.4 hPa West 16.1 km/h 32.2 km/h 58 % 0 mm 111 W/m2
19:30 15.3 °C 6.8 °C 1009.4 hPa West 17.7 km/h 32.2 km/h 57 % 0 mm 83 W/m2
19:35 15.2 °C 7 °C 1009.4 hPa West 19.3 km/h 33.8 km/h 58 % 0 mm 65 W/m2
19:40 15.1 °C 6.6 °C 1009 hPa WSW 20.9 km/h 38.6 km/h 57 % 0 mm 60 W/m2
19:45 14.9 °C 6.7 °C 1009.4 hPa WSW 22.5 km/h 38.6 km/h 58 % 0 mm 51 W/m2
19:50 14.9 °C 6.7 °C 1009.4 hPa WSW 22.5 km/h 37 km/h 58 % 0 mm 51 W/m2
19:55 14.8 °C 6.8 °C 1009.4 hPa WSW 20.9 km/h 35.4 km/h 59 % 0 mm 54 W/m2
20:00 14.7 °C 6.8 °C 1009 hPa WSW 19.3 km/h 40.2 km/h 59 % 0 mm 44 W/m2
20:05 14.7 °C 7 °C 1009 hPa WSW 14.5 km/h 40.2 km/h 60 % 0 mm 37 W/m2
20:10 14.6 °C 6.9 °C 1009.4 hPa WSW 12.9 km/h 25.7 km/h 60 % 0 mm 30 W/m2
20:15 14.6 °C 7.2 °C 1009 hPa WSW 14.5 km/h 25.7 km/h 61 % 0 mm 25 W/m2
20:20 14.4 °C 6.9 °C 1009 hPa WSW 12.9 km/h 24.1 km/h 61 % 0 mm 21 W/m2
20:25 14.4 °C 6.9 °C 1009.4 hPa WSW 9.7 km/h 17.7 km/h 61 % 0 mm 18 W/m2
20:30 14.3 °C 7.1 °C 1009.4 hPa WSW 8 km/h 14.5 km/h 62 % 0 mm 19 W/m2
20:35 14.3 °C 7.1 °C 1009.4 hPa WSW 6.4 km/h 14.5 km/h 62 % 0 mm 19 W/m2
20:40 14.2 °C 7.3 °C 1009.4 hPa SW 6.4 km/h 14.5 km/h 63 % 0 mm 12 W/m2
20:45 14.2 °C 7.3 °C 1009.4 hPa SW 6.4 km/h 11.3 km/h 63 % 0 mm 9 W/m2
20:50 14.2 °C 7.3 °C 1009.4 hPa SW 6.4 km/h 12.9 km/h 63 % 0 mm 9 W/m2
20:55 14.1 °C 7.4 °C 1009 hPa SW 4.8 km/h 12.9 km/h 64 % 0 mm 9 W/m2
21:00 14.1 °C 7.4 °C 1009.4 hPa SSW 4.8 km/h 11.3 km/h 64 % 0 mm 7 W/m2
21:05 14.1 °C 7.6 °C 1009.4 hPa SSW 3.2 km/h 8 km/h 65 % 0 mm 5 W/m2
21:11 14 °C 7.5 °C 1009 hPa SSW 4.8 km/h 16.1 km/h 65 % 0 mm 0 W/m2
21:12 14 °C 7.7 °C 1009 hPa SSW 4.8 km/h 16.1 km/h 66 % 0 mm 0 W/m2
21:17 14 °C 7.9 °C 1009 hPa South 6.4 km/h 16.1 km/h 67 % 0 mm 0 W/m2
21:22 13.9 °C 8.1 °C 1009 hPa SSW 6.4 km/h 11.3 km/h 68 % 0 mm 0 W/m2
21:27 13.8 °C 8.2 °C 1009 hPa SSW 8 km/h 16.1 km/h 69 % 0 mm 0 W/m2
21:32 13.7 °C 8.3 °C 1009 hPa SW 9.7 km/h 16.1 km/h 70 % 0 mm 0 W/m2
21:37 13.7 °C 8.6 °C 1009 hPa SSW 8 km/h 14.5 km/h 71 % 0 mm 0 W/m2
21:42 13.6 °C 8.7 °C 1009 hPa SSW 8 km/h 14.5 km/h 72 % 0 mm 0 W/m2
21:47 13.5 °C 8.8 °C 1009 hPa SSW 9.7 km/h 14.5 km/h 73 % 0 mm 0 W/m2
21:52 13.4 °C 8.8 °C 1009 hPa SSW 9.7 km/h 16.1 km/h 74 % 0 mm 0 W/m2
21:57 13.4 °C 9.1 °C 1009 hPa SSW 11.3 km/h 19.3 km/h 75 % 0 mm 0 W/m2
22:02 13.3 °C 9.2 °C 1009 hPa SSW 12.9 km/h 22.5 km/h 76 % 0 mm 0 W/m2
22:07 13.2 °C 9.3 °C 1008.7 hPa SSW 11.3 km/h 22.5 km/h 77 % 0 mm 0 W/m2
22:12 13.2 °C 9.3 °C 1008.7 hPa SSW 11.3 km/h 17.7 km/h 77 % 0 mm 0 W/m2
22:17 13.1 °C 9.6 °C 1008.7 hPa SSW 9.7 km/h 17.7 km/h 79 % 0 mm 0 W/m2
22:22 13.1 °C 9.6 °C 1008.7 hPa SSW 11.3 km/h 19.3 km/h 79 % 0 mm 0 W/m2
22:27 12.9 °C 9.6 °C 1008.4 hPa SSW 11.3 km/h 20.9 km/h 80 % 0 mm 0 W/m2
22:33 12.9 °C 9.7 °C 1008.4 hPa South 9.7 km/h 20.9 km/h 81 % 0 mm 0 W/m2
22:38 12.8 °C 9.6 °C 1008.4 hPa South 9.7 km/h 19.3 km/h 81 % 0 mm 0 W/m2
22:48 12.8 °C 10 °C 1008.4 hPa South 4.8 km/h 12.9 km/h 83 % 0 mm 0 W/m2
22:58 12.7 °C 10.1 °C 1008 hPa South 6.4 km/h 14.5 km/h 84 % 0 mm 0 W/m2
23:03 12.6 °C 9.9 °C 1008 hPa South 8 km/h 16.1 km/h 84 % 0 mm 0 W/m2
23:08 12.5 °C 10.1 °C 1008 hPa South 8 km/h 16.1 km/h 85 % 0 mm 0 W/m2
23:13 12.5 °C 10.1 °C 1008 hPa SSE 8 km/h 14.5 km/h 85 % 0 mm 0 W/m2
23:18 12.4 °C 10.1 °C 1007.7 hPa SSE 6.4 km/h 14.5 km/h 86 % 0 mm 0 W/m2
23:23 12.4 °C 10.1 °C 1007.7 hPa South 8 km/h 14.5 km/h 86 % 0 mm 0 W/m2
23:28 12.3 °C 10 °C 1007.7 hPa SSE 8 km/h 14.5 km/h 86 % 0 mm 0 W/m2
23:33 12.3 °C 10.2 °C 1007.7 hPa SSE 8 km/h 17.7 km/h 87 % 0 mm 0 W/m2
23:38 12.3 °C 10.2 °C 1007.7 hPa SSE 6.4 km/h 17.7 km/h 87 % 0 mm 0 W/m2
23:43 12.3 °C 10.4 °C 1007.3 hPa South 4.8 km/h 11.3 km/h 88 % 0 mm 0 W/m2
23:48 12.3 °C 10.4 °C 1007.3 hPa South 9.7 km/h 25.7 km/h 88 % 0 mm 0 W/m2
23:53 12.2 °C 10.4 °C 1007.3 hPa South 9.7 km/h 25.7 km/h 89 % 0 mm 0 W/m2
23:58 12.2 °C 10.4 °C 1007.3 hPa SSW 4.8 km/h 14.5 km/h 89 % 0 mm 0 W/m2
Delerius-Weather
Compliments of Weather Underground - 2.25 mb

Data updates at regular intervals.